Regional Weather Roundup
Issued by NWS Albany, NY

Home | Current Version | Previous Version | Text Only | Print | Product List | Glossary On
Versions: 1 2 3 4 5 6 7 8 9 10 11 12 13 14 15 16 17 18 19 20 21 22 23 24 25 26 27
000
ASUS41 KALY 011510
RWRALY

NEW YORK STATE HOURLY WEATHER ROUNDUP
NATIONAL WEATHER SERVICE ALBANY NY
1100 AM EDT SAT OCT 01 2016

NOTE: "FAIR" INDICATES FEW OR NO CLOUDS BELOW 12,000 FEET WITH NO
SIGNIFICANT WEATHER AND/OR NO OBSTRUCTIONS TO VISIBILITY.

NYZ032-033-038>043-046>054-057>066-NYZ062>081-082-084-011600-
EAST


CITY           SKY/WX    TMP DP  RH WIND       PRES   REMARKS
ALBANY         CLOUDY    55  49  80 NE3       30.30F
GLENS FALLS    CLOUDY    57  51  80 N6        30.31S
POUGHKEEPSIE   CLOUDY    53  52  96 N8        30.25F FOG
NEWBURGH       DRIZZLE   55  55 100 NE9       30.27F FOG
MONTGOMERY     LGT RAIN  56  54  93 NE10      30.25F FOG
WHITE PLAINS   CLOUDY    59  54  83 NE12      30.22S
ISLIP          CLOUDY    59  58  96 N10       30.20S FOG
NEW YORK CITY  CLOUDY    63  57  81 NE18      30.21F
CENTRAL PARK   CLOUDY    60  54  80 VRB5      30.24S
$$

NYZ005>009-017-018-044>046-055-056-011600-
CENTRAL


CITY           SKY/WX    TMP DP  RH WIND       PRES   REMARKS
FULTON         CLOUDY    58  50  75 VRB6      30.23S
SYRACUSE       CLOUDY    57  52  82 E8        30.22F
ROME           CLOUDY    56  51  84 SE10      30.27F
ELMIRA         CLOUDY    57  53  86 SE7       30.20F
BINGHAMTON     CLOUDY    54  54 100 SE8       30.22S
MONTICELLO     CLOUDY    52  52 100 E9        30.27R
$$

NYZ026>034-041>043-087-011600-
NORTH


CITY           SKY/WX    TMP DP  RH WIND       PRES   REMARKS
WATERTOWN      CLOUDY    61  52  72 VRB3      30.24F
FORT DRUM      NOT AVBL
OGDENSBURG       N/A     60  50  69 E6        30.28S
MASSENA        CLOUDY    59  43  55 E3        30.30F
SARANAC LAKE   CLOUDY    54  45  71 NE3       30.28F
PLATTSBURGH    CLOUDY    58  49  72 SE8       30.33S
$$

NYZ001>004-010>016-019>021-085-011600-
WEST


CITY           SKY/WX    TMP DP  RH WIND       PRES   REMARKS
NIAGARA FALLS  CLOUDY    59  55  87 E9        30.15F
BUFFALO        PTSUNNY   59  56  89 E7        30.15F
DUNKIRK        CLOUDY    62  59  90 CALM      30.13S
JAMESTOWN      CLOUDY    57  54  88 S7        30.13F
WELLSVILLE     CLOUDY    59  55  87 SE8       30.19F
ROCHESTER      LGT RAIN  58  54  86 E9        30.19F
PENN YAN       CLOUDY    58  53  84 S8        30.22S
$$

             KEY
       WCI = WIND CHILL INDEX
       VSB = VISIBILITY
       HX  = HEAT INDEX
$$




USA.gov is the U.S. government's official web portal to all federal, state and local government web resources and services.